Regional Weather Roundup
Issued by NWS Wakefield, VA

Home | Current Version | Previous Version | Graphics & Text | Print | Product List | Glossary On
Versions: 1 2 3 4 5 6 7 8 9 10 11 12 13 14 15 16 17 18 19 20 21 22 23 24 25 26 27 28 29 30 31 32 33 34 35 36 37 38 39 40 41 42 43 44 45 46 47 48 49 50
000
ASUS41 KAKQ 251310
RWRAKQ

REGIONAL WEATHER ROUNDUP
NATIONAL WEATHER SERVICE WAKEFIELD VA
800 AM EST SUN JAN 25 2015

Note: "fair" indicates few or no clouds below 12,000 feet with no
significant weather and/or obstructions to visibility. * = Denotes
station may not report precipitation (e.g., rain,snow,etc.),
thunder or fog.

VAZ042-051-052>054-056-251400-
NORTHERN VIRGINIA

CITY           SKY/WX    TMP DP  RH WIND       PRES   REMARKS
WASH NATIONAL  CLOUDY    39  27  62 SW6       29.84F
DULLES         CLOUDY    36  27  69 S6        29.83R
FORT BELVOIR   CLOUDY    37  28  69 VRB2      29.85S
QUANTICO       CLOUDY    36  28  73 NW7       29.86S
FREDERICKSBRG* MOCLDY    33  30  86 SW5       29.85R
STAFFORD*      MOCLDY    35  26  69 CALM      29.89R
WARRENTON      CLOUDY    33  32  95 CALM      29.84R
CULPEPER*      MOCLDY    36  28  75 SW5       29.85R
MANASSAS*      CLOUDY    36  30  80 CALM      29.85R
LEESBURG*      CLOUDY    36  32  87 SW5       29.83R
WINCHESTER     CLOUDY    41  27  56 SW7       29.80S
FRONT ROYAL*   CLOUDY    37  28  70 SW3       29.81R
LURAY*         CLOUDY    36  32  87 S3        29.82R
$$

VAZ048-049-060>072-079>083-251400-
CENTRAL AND SOUTH CENTRAL VIRGINIA

CITY           SKY/WX    TMP DP  RH WIND       PRES   REMARKS
RICHMOND       CLOUDY    36  29  75 W5        29.87R
CHESTERFIELD*  FAIR      32  19  59 CALM      29.89R
PETERSBURG*    CLOUDY    33  32  96 SW5       29.89R
HANOVER        CLOUDY    31  28  89 S5        29.87S
TAPPAHANNOCK*  CLOUDY    32  26  77 CALM      29.87S
QUINTON*       FAIR      32  29  89 CALM      29.86F
CHARLOTTSVILLE MOCLDY    34  26  72 S5        29.83R
GORDONSVILLE*  FAIR      29  26  89 CALM      29.84R
ORANGE*        MOCLDY    34  30  86 CALM      29.86R
LOUISA*        MOCLDY    34  28  80 SW3       29.84R
BUMPASS*       FAIR      31  27  84 SW3       29.85R
FARMVILLE*     CLOUDY    33  29  84 S3        29.86R
CREWE*         FAIR      35  28  76 CALM      29.88R
FORT PICKETT*  FAIR      32  29  88 SW3       29.89R
CHASE CITY*    FAIR      35  32  90 CALM      29.89R
CLARKSVILLE*   FAIR      32  30  93 CALM      29.90R
SOUTH HILL*    CLOUDY    32  27  82 SW3       29.96R
LAWRENCEVILLE* FAIR      31  29  94 W3        29.90R
EMPORIA*       MOCLDY    32  30  93 SW3       29.93R
$$

VAZ088>098-251400-
SOUTHEAST VIRGINIA

CITY           SKY/WX    TMP DP  RH WIND       PRES   REMARKS
NORFOLK        PTCLDY    37  28  70 W3        29.90R
VIRGINIA BEACH PTCLDY    35  29  78 SW6       29.90R
NORFOLK NAVAL  MOCLDY    40  30  67 W5        29.92R
WEST POINT*    MOCLDY    32  29  88 CALM      29.89S
SALUDA*        FAIR      35  28  74 CALM      29.87S
NEWPORT NEWS   MOCLDY    36  29  75 SW7       29.89S
LANGLEY AFB    MOCLDY    35  29  79 W6        29.89S
FORT EUSTIS    MOCLDY    34  30  85 W3        29.87S
WILLIAMSBURG*    N/A    N/A N/A N/A MISG      29.87F
HR EXEC AP*    FAIR      30  28  93 CALM      29.93R
FRANKLIN*      MOCLDY    32  29  89 CALM      29.91F
WAKEFIELD      MOCLDY    34  28  79 CALM      29.89S
$$

VAZ020-022-025-037-045-251400-
WEST CENTRAL AND SOUTHWEST VIRGINIA

CITY           SKY/WX    TMP DP  RH WIND       PRES   REMARKS
STAUNTON*      CLOUDY    36  27  69 S6        29.83S
WAYNESBORO*    CLOUDY    34  26  73 CALM      29.81S
HOT SPRINGS VA CLOUDY    29  29 100 W8        29.72R FOG
LYNCHBURG      MOCLDY    30  26  85 S3        29.87S
DANVILLE       PTCLDY    31  25  78 SW3       29.91R
SOUTH BOSTON*  FAIR      33  28  82 CALM      29.91R
MARTINSVILLE   PTCLDY    28  28 100 CALM      29.92R
ROANOKE        PTCLDY    37  28  70 W13       29.88R
BLACKSBURG     CLEAR     30  26  85 SW7       29.89R
DUBLIN*        CLEAR     32  30  91 W10       29.87R WCI  24
MARION*        CLOUDY    32  28  84 W7        29.88R
HILLSVILLE*    PTCLDY    30  27  89 NW7       29.83S
RICHLANDS*     FAIR      31  26  80 SW9       29.83S
WISE*          PTCLDY    30  30 100 S6        29.83R
ABINGDON*      PTCLDY    28  26  93 CALM      29.86F
$$

MDZ021>025-VAZ099-100-251400-
SOUTHERN MARYLAND AND THE DELMARVA PENINSULA

CITY           SKY/WX    TMP DP  RH WIND       PRES   REMARKS
PATUXENT RIVER MOCLDY    35  28  75 CALM      29.85S
BAY BRIDGE APT   N/A     37  28  70 SW7       29.84R
LEONARDTOWN    MOCLDY    32  30  93 CALM      29.86S
DOVER          CLOUDY    38  30  73 SW13      29.82R
GEORGETOWN     CLOUDY    38  28  67 W6        29.85R
EASTON         CLOUDY    37  32  81 SW8       29.88R
CAMBRIDGE      CLOUDY    36  30  80 CALM      29.85R
SALISBURY      CLOUDY    39  29  67 W6        29.86R
OCEAN CITY     MOCLDY    36  28  73 W6        29.86R
WALLOPS ISLAND MOCLDY    36  30  79 W6        29.88R
ACCOMACK*      CLEAR     36  30  80 W3        29.88R
$$

NCZ012>017-030>032-251400-
NORTH CENTRAL AND EASTERN NORTH CAROLINA

CITY           SKY/WX    TMP DP  RH WIND       PRES   REMARKS
ROANOKE RAPIDS FAIR      32  28  86 SW5       29.93R
RALEIGH        PTCLDY    32  25  75 CALM      29.93R
ELIZABETH CITY CLEAR     35  29  78 W6        29.93R
AHOSKIE*       PTCLDY    30  27  89 CALM      29.93R
EDENTON*       CLEAR     37  30  77 W3        29.93R
CURRITUCK*     CLEAR     34  29  82 W5        29.93R
KILL DEVIL HLS CLEAR     39  32  76 W6        29.92R
MANTEO         CLEAR     39  30  70 NW8G16    29.93R
CAPE HATTERAS  CLEAR     42  32  67 NW13G22   29.94R
TARBORO*       FAIR      30  29  96 CALM      29.96R
GOLDSBORO      CLEAR     30  30  99 CALM      29.94R
WASHINGTON     CLEAR     31  29  91 CALM      29.94R
GREENVILLE     CLEAR     34  32  93 CALM      29.96R
NEW BERN       CLEAR     34  30  85 SW3       29.97R
WILMINGTON     CLEAR     33  33 100 S3        29.98R FOG
$$

VAZ048-251400-
ELSEWHERE

CITY           SKY/WX    TMP DP  RH WIND       PRES   REMARKS
HARRISBURG PA  CLOUDY    38  28  67 VRB5      29.76R
BALTIMORE      CLOUDY    39  27  62 W13       29.81R
ANNAPOLIS      CLOUDY    38  26  62 VRB3      29.83R
ANDREWS AFB    CLOUDY    34  27  73 W5        29.82F
PHILADELPHIA   MOCLDY    37  28  70 SW18      29.78R
HENDERSON NC   CLEAR     34  28  77 S3        29.92R
GREENSBORO     MOCLDY    29  25  85 SW5       29.90R
ROCKY MOUNT    CLEAR     29  26  89 CALM      29.95R
$$

VAZ100-251400-
MARINE

STATION/POSITION TIME  TEMP    WIND        PRES    WAVE   SWELL
                       AIR SEA DIR/SP/G            HT/PER HT/PER
                 (UTC) (F)     (DEG/KT/KT) (MB)    (FT/S) (FT/S)
BRANDYWINE LGT   1300   37 36  270/ 17/ 20 1009.8R
CAPE MAY NJ      1300   37 37  260/ 16/ 18 1009.4R
LEWES DE         1300   39 38  270/ 12/ 17 1010.2R
15NM E FENWICK I 1300   40 42              1009.7R   5/11
OCEAN-CITY-INLET 1300   37 38  300/  7/ 11 1010.6R
WACHAPREAGUE VA  1300   37 40  270/  3/  5 1011.6S
THOMAS POINT MD  1300   37 37  240/  3/  4 1011.1F
GOOSES REEF MD   1300   37 36  VRB  6/  8  1009.5F   1
COVE POINT MD    1300   36     260/  8/ 10 1010.7S
SOLOMONS ISLAND  1300      38                N/A
BISHOPS HEAD MD  1300   37 36  260/  9/ 11 1010.7R
PINEY POINT MD   1300          290/  6/  8   N/A
POTOMAC MD       1300   37 38  270/  6/  8 1010.1R   2/ 3
CAMBRIDGE MD     1300   38 36  240/  5/  9 1010.7S
LEWISETTA VA     1300   35 37  240/  7/  9 1010.6F
RAPPAHANNOCK LGT 1300          250/ 11/ 13 1012.1R
STINGRAY PT      1300   37 39  270/  8/ 10 1012.2R   0
YORK RVR RNG VA  1300   39     270/ 11/ 12 1011.3R
JAMESTOWN VA     1300   35 41  250/  4/  4   N/A     0
DOMINION TERM VA 1300   38     300/  7/  8 1012.4S
KIPTOPEKE VA     1300      45  280/  7/  9   N/A
CHES BAY BRIDGE  1300   40 41  260/ 11/ 13 1012.0S
CAPE HENRY VA    1300   37     250/  5/  7 1011.2S
CHESAPEAKE LGHT  1200   40     290/ 17/ 18 1012.8R
WILLOUBY STN VA  1300   38     280/  9/ 11 1012.6F
S CRANEY ISL VA  1300          250/  4/  6 1012.3F
CAPE HENRY BUOY  1300      45                N/A     3/11   2/11
1ST LANDING BUOY 1300   40 41  270/ 10/ 12 1012.2S   1/ 3
CAPE CHARLES BUO 1300      43                N/A     3/11   2/11
OFFSHORE WE BUOY 1300      47                N/A     4/11   3/11
64NM E OF VA BCH 1300   45 52  340/ 23/ 25 1011.5R   6/ 6   2/11
DUCK PIER NC     1300   39 43  300/ 11/ 14 1012.4R
44100 DUCK FRF   1300      45                N/A     4/10   2/11
44056 DUCK FRF   1300      43                N/A     3/11   2/11
OREGON INLET NC  1300   39 47  290/  7/ 11 1013.4R
HATTERAS NC      1300   44 53  310/ 16/ 19 1014.0R



USA.gov is the U.S. government's official web portal to all federal, state and local government web resources and services.